Location: ????????
(55.4000°N, 39.1167°E)
Time: 11:31:27
(UTC+00:00)

USA 238 - Pass Details

Date: 19 May 2025
Orbit: 897 x 1314 km, 63.4° (Epoch: 01 June)

Event Time Altitude Azimuth Distance (km) Brightness Sun altitude
Rises 23:06:30 0° 308° (NW) 3,875 6.8 -11.3°
Reaches altitude 10° 23:09:03 10° 308° (NW) 2,974 6.2 -11.1°
Maximum altitude 23:16:14 90° 218° (SW) 1,197 4.0 -10.7°
Drops below altitude 10° 23:24:08 10° 132° (SE) 3,248 6.1 -10.1°
Sets 23:27:01 0° 132° (SE) 4,250 6.7 -9.9°
